TIME,DELAY(SENSOR),PRES,OXYGEN,RAWTEMP,T(OPTODE),TCPHASE,FLUOR,BETA(BETA700),BETA(BETA412),BETA(BETA440),CDOM,C(CSC),ED(ED411.90),ED(ED443.80),ED(ED489.40),ED(ED554.70),LU(LU412.20),LU(LU443.80),LU(LU489.40),LU(LU555.00),COMP,TILTX,TILTY,CHECK
1341958158,5803,871.9000244140625000,179.3433990478515600,472.8747863769531000,8.7268457412719730,39.3405685424804700,51,107,105,79,75,15448,2147445659,2147791168,2147575972,2147827053,2147305846,2147453339,2147756187,2148272292,2743,6,14,24878
1341961755,5805,922.0000000000000000,218.4118041992187500,535.0526733398438000,6.7785840034484860,38.0010490417480500,51,111,103,80,76,15439,2147436251,2147795803,2147585033,2147832594,2147305755,2147446134,2147765696,2148276562,299,6,14,9654
1341965355,5802,995.0000000000000000,226.6284942626953000,542.2147216796875000,6.5524010658264160,37.6755294799804700,51,107,104,79,75,15441,2147435593,2147802441,2147585874,2147834304,2147305005,2147448594,2147764306,2148277641,3592,6,15,48801
1341968955,5803,9.0000000000000000,230.7814941406250000,546.2747192382812000,6.4240069389343260,37.5259017944335940,53,110,103,79,75,15433,2147430454,2147803437,2147589046,2147834550,2147306194,2147446802,2147766299,2148279277,1799,6,15,39060
1341972555,5805,9.8999996185302730,231.3885040283203000,546.5374145507812000,6.4156951904296875,37.4982490539550800,52,107,102,79,77,15430,2147433865,2147799707,2147586916,2147835218,2147306331,2147444845,2147764105,2148281170,119,6,14,33453
1341976155,5803,1000.0000000000000000,234.3973999023437500,548.8344726562500000,6.3429889678955080,37.3811683654785160,51,105,103,79,76,15427,2147430912,2147801197,2147589238,2147834578,2147305782,2147446180,2147767168,2148279561,3289,6,14,30670
1341979755,5803,10.0000000000000000,234.9340057373047000,548.5568847656250000,6.3517780303955080,37.3477592468261700,51,106,102,79,76,15427,2147430061,2147800192,2147585325,2147837686,2147306386,2147445156,2147770441,2148280493,3245,6,14,27482
1341983355,5802,10.3000001907348630,236.1862030029297000,549.5006713867188000,6.3218960762023930,37.3000488281250000,51,110,103,79,78,15425,2147431140,2147800192,2147589467,2147836306,2147304868,2147443666,2147766381,2148281600,3451,6,15,36455
1341986955,5802,127.0000000000000000,237.1183013916015600,550.0847167968750000,6.3034038543701170,37.2621498107910160,52,110,103,79,77,15425,2147431094,2147800173,2147587382,2147837540,2147304493,2147449664,2147767442,2148281115,286,6,14,60339
1341990555,5800,10.6999998092651370,237.1726989746093800,550.5714721679688000,6.2879848480224610,37.2681083679199200,51,108,103,80,76,15423,2147428315,2147802358,2147587062,2147835318,2147305106,2147445494,2147767844,2148278793,472,6,14,51311
1341994155,5805,1073.0000000000000000,236.3950958251953000,549.6390991210938000,6.3175129890441895,37.2914390563964840,51,108,102,79,76,15422,2147429814,2147801481,2147587830,2147833161,2147305106,2147449152,2147765522,2148281846,211,6,14,54038
1341997755,5804,10.6000003814697270,237.4255981445312500,550.5867919921875000,6.2874979972839355,37.2550697326660160,52,108,103,77,76,15424,2147427273,2147804160,2147587757,2147836672,2147302848,2147448356,2147768329,2148281280,383,6,14,37604
1342001355,5806,10.0000000000000000,237.4526977539062500,550.6220092773438000,6.2863831520080570,37.2544784545898440,51,107,103,78,76,15421,2147430884,2147800685,2147586788,2147837668,2147302637,2147448054,2147770358,2148280054,433,6,15,50054
1342004955,5805,10.8999996185302730,236.7906036376953000,550.7941284179688000,6.2809309959411620,37.2924194335937500,51,107,102,80,77,15419,2147433773,2147797906,2147587126,2147839058,2147302875,2147448365,2147767433,2148279981,343,6,14,47940
1342008555,5806,10.8999996185302730,238.2518005371093800,551.5621948242188000,6.2565989494323730,37.2302207946777340,51,109,102,79,76,15422,2147426742,2147799744,2147587081,2147833490,2147305161,2147443922,2147771337,2148279030,3372,6,15,5765
1342012155,5800,10.3000001907348630,237.9826965332031200,551.5778198242188000,6.2561049461364750,37.2446708679199200,51,107,103,79,76,15419,2147430299,2147801188,2147588370,2147835428,2147302144,2147444882,2147774930,2148279012,3566,6,15,31353
1342015755,5804,11.3999996185302730,237.7272949218750000,551.2001953125000000,6.2680702209472660,37.2514305114746100,52,117,103,79,77,15418,2147429787,2147800722,2147584374,2147837494,2147304466,2147444096,2147768786,2148280576,2923,6,15,30360
1342019355,5806,11.8999996185302730,235.5610961914062500,550.7988281250000000,6.2807831764221190,37.3557815551757800,50,106,103,79,76,15416,2147428635,2147799844,2147587620,2147835721,2147305252,2147441600,2147769097,2148281673,369,6,15,32451
1342022955,5808,11.6000003814697270,235.6555023193359400,550.8770141601562000,6.2783069610595700,37.3525009155273440,50,110,103,79,77,15412,2147431451,2147802514,2147586733,2147835794,2147303853,2147444123,2147772498,2148283602,38,6,14,54404
1342026555,5802,10.6999998092651370,235.4270019531250000,551.0905151367188000,6.2715439796447750,37.3684196472168000,51,107,103,80,76,15414,2147430299,2147800512,2147587172,2147836781,2147307922,2147445696,2147767899,2148279945,3329,6,15,35229
1342030155,5803,1082.0000000000000000,237.9483032226562500,551.9545288085938000,6.2441692352294920,37.2532691955566400,51,108,104,79,76,15414,2147431259,2147801764,2147585984,2147835602,2147304868,2147445595,2147765120,2148280612,3520,6,15,6907
1342033755,5805,10.3999996185302730,237.5036010742187500,552.0336303710938000,6.2416667938232420,37.2777786254882800,51,107,103,77,76,15412,2147427172,2147805430,2147584384,2147834441,2147308096,2147446390,2147771108,2148277092,145,6,15,59136
1342037355,5802,11.6000003814697270,237.8858032226562500,551.3256835937500000,6.2640929222106930,37.2448501586914060,51,107,103,79,77,15412,2147429814,2147804077,2147587931,2147833709,2147309293,2147449325,2147770084,2148279798,759,6,15,8839
1342040955,5804,11.3999996185302730,236.8495025634765600,550.3690795898438000,6.2943949699401855,37.2809486389160160,50,108,104,79,77,15409,2147428973,2147801618,2147588644,2147835117,2147304438,2147443218,2147768493,2148281645,3577,6,15,33278
1342044555,5804,10.3000001907348630,237.1177978515625000,551.0067138671875000,6.2741990089416500,37.2786598205566400,51,108,103,78,76,15409,2147427803,2147804489,2147585627,2147835163,2147309924,2147447945,2147770861,2148279369,198,6,15,47054
1342048155,5804,11.6999998092651370,236.6186981201172000,550.3250732421875000,6.2957901954650880,37.2922706604003900,51,107,102,78,76,15412,2147428306,2147803602,2147589074,2147835702,2147303570,2147448594,2147768192,2148281508,3541,6,15,49151
1342051755,5803,1172.0000000000000000,236.3892974853515600,550.3140258789062000,6.2961411476135250,37.3040390014648440,51,114,103,79,77,15408,2147425837,2147802578,2147586413,2147833517,2147303826,2147451867,2147767488,2148284370,96,6,14,221
1342055355,5802,114.0000000000000000,236.7418060302734400,550.6271972656250000,6.2862210273742680,37.2914085388183600,51,105,103,78,77,15403,2147430820,2147807643,2147584914,2147833938,2147303113,2147445229,2147770779,2148281810,3056,6,15,22323
1342058955,5803,1142.0000000000000000,236.9750061035156200,550.8790893554688000,6.2782402038574220,37.2841911315918000,51,110,101,79,76,15409,2147430080,2147800493,2147587465,2147837833,2147305883,2147448493,2147769691,2148280640,3420,6,15,60156
1342062555,5805,1101.0000000000000000,236.8824005126953000,551.7661743164062000,6.2501368522644040,37.3047981262207000,51,105,103,80,76,15402,2147429824,2147801956,2147588242,2147838180,2147304630,2147444480,2147769828,2148279881,3580,6,15,6906
1342066155,5803,1040.0000000000000000,238.2337951660156200,552.9631958007812000,6.2122077941894530,37.2568283081054700,53,107,102,81,77,15399,2147429961,2147801837,2147587172,2147833883,2147305590,2147444973,2147767844,2148281481,3074,6,15,2303
1342069755,5802,10.8000001907348630,238.3155059814453000,553.3045043945312000,6.2013888359069820,37.2586898803710940,51,106,102,85,77,15400,2147431442,2147800265,2147589120,2147834962,2147304237,2147444388,2147775652,2148285970,3328,6,15,29488
1342073355,5807,10.1000003814697270,238.7868041992187500,553.8352050781250000,6.1845660209655760,37.2439994812011700,52,104,104,82,76,15375,2147426468,2147801581,2147589001,2147836900,2147305737,2147445641,2147770212,2148281042,3230,6,15,3306
1342076955,5805,11.1999998092651370,239.7456054687500000,553.9171142578125000,6.1819710731506350,37.1965217590332000,51,107,103,84,76,15376,2147429933,2147798555,2147589467,2147836178,2147305920,2147451026,2147769517,2148281901,62,6,14,6652
1342080555,5803,1069.0000000000000000,239.5417938232422000,552.6854248046875000,6.2210121154785160,37.1848411560058600,50,105,104,83,76,15374,2147431268,2147802532,2147588013,2147837348,2147305280,2147444763,2147771492,2148281709,2907,6,15,41482
1342084155,5806,1085.0000000000000000,238.0301055908203000,552.7874145507812000,6.2177767753601070,37.2641716003418000,51,107,107,81,76,15372,2147425581,2147803794,2147590646,2147831085,2147305362,2147446564,2147769398,2148282496,108,6,15,46867
1342087755,5803,11.6000003814697270,238.1361999511718800,552.0369262695312000,6.2415599822998050,37.2454414367675800,51,109,103,83,75,15375,2147426413,2147799908,2147586569,2147837952,2147306605,2147446555,2147767725,2148278976,2874,6,15,9976
1342091355,5802,11.0000000000000000,237.6531982421875000,551.4738769531250000,6.2593989372253420,37.2594490051269500,51,105,103,82,75,15369,2147427510,2147803072,2147589074,2147835492,2147303497,2147445312,2147770816,2148282916,3356,6,15,34269
1342094955,5801,1174.0000000000000000,236.6168060302734400,551.5045776367188000,6.2584271430969240,37.3144187927246100,50,108,102,83,77,15368,2147427392,2147803181,2147586258,2147839067,2147304320,2147447542,2147770395,2148279314,3435,6,15,61803
1342098555,5805,1081.0000000000000000,236.8045959472656200,551.5042114257812000,6.2584400177001950,37.3041114807128900,50,107,103,81,76,15359,2147431442,2147805668,2147583058,2147836891,2147308772,2147450660,2147773504,2148280649,146,6,15,26846
1342101056,5804,1007.0000000000000000,236.0424957275390600,551.0991210937500000,6.2712731361389160,37.3365211486816400,51,104,102,84,76,15359,2147431780,2147798720,2147584512,2147835931,2147302409,2147443510,2147770304,2148280210,3394,6,15,6737
